GW4042 Weather Reports


time (UTC)temp
F
wind
direction
speed
knots
gust
knots
rain 1hr
in
rain 24hr
in
rain mn
in
humidity
%
barometer
mb
20260504173004 64 279 1.7 5.2 0.00 0.00 0.00 61 1010.7
20260504171503 61 235 0.9 2.6 0.00 0.00 0.00 70 1010.8
20260504081504 51 169 0.0 0.0 0.00 0.00 0.00 86 1010.1
20260504050025 58 157 0.0 0.0 0.00 0.00 0.00 75 1010.1
20260504044516 58 157 0.0 0.9 0.00 0.00 0.00 72 1010.1
20260504043020 59 157 0.0 0.9 0.00 0.00 0.00 71 1010.1
20260504041531 61 157 0.0 0.9 0.00 0.00 0.00 70 1010.2
20260504040022 62 157 0.0 0.0 0.00 0.00 0.00 68 1010.2
20260504034520 63 200 0.0 2.6 0.00 0.00 0.00 67 1010.0
20260504033019 65 270 0.0 2.6 0.00 0.00 0.00 65 1010.0
20260504031520 67 130 0.0 1.7 0.00 0.00 0.00 64 1010.0
20260504030017 70 164 0.0 0.9 0.00 0.00 0.00 59 1009.9
20260504024523 74 183 0.0 1.7 0.00 0.00 0.00 49 1009.7
20260504023025 76 180 0.0 6.1 0.00 0.00 0.00 44 1009.7
20260504021524 77 214 0.9 5.2 0.00 0.00 0.00 40 1009.8
20260504020010 77 232 0.9 7.0 0.00 0.00 0.00 45 1010.0
20260504014509 76 202 0.9 8.7 0.00 0.00 0.00 42 1010.1
20260504013003 76 205 6.1 12.2 0.00 0.00 0.00 42 1010.1
20260504011512 74 244 7.8 13.0 0.00 0.00 0.00 46 1010.3
20260504010014 77 229 5.2 9.6 0.00 0.00 0.00 44 1010.4
20260504004521 75 256 4.3 10.4 0.00 0.00 0.00 49 1010.6
20260504003016 73 237 7.8 13.0 0.00 0.00 0.00 54 1010.7
20260504001512 75 248 8.7 13.0 0.00 0.00 0.00 50 1010.7
20260504000012 75 240 5.2 12.2 0.00 0.00 0.00 50 1010.9
20260503234506 73 223 9.6 13.0 0.00 0.00 0.00 53 1011.0
20260503233014 72 238 10.4 14.8 0.00 0.00 0.00 56 1011.0
20260503231521 73 250 11.3 14.8 0.00 0.00 0.00 52 1011.2
20260503230019 74 263 12.2 16.5 0.00 0.00 0.00 51 1011.4
20260503224521 71 244 11.3 13.0 0.00 0.00 0.00 56 1011.6
20260503223017 70 250 11.3 13.9 0.00 0.00 0.00 58 1011.8
20260503221522 71 252 10.4 13.0 0.00 0.00 0.00 58 1011.9
20260503220012 69 252 9.6 12.2 0.00 0.00 0.00 61 1012.0
20260503214511 71 242 8.7 11.3 0.00 0.00 0.00 58 1012.2
20260503213024 72 243 7.8 11.3 0.00 0.00 0.00 55 1012.4
20260503211524 71 246 7.8 12.2 0.00 0.00 0.00 56 1012.5
20260503210025 70 242 11.3 13.9 0.00 0.00 0.00 58 1012.5
20260503204524 70 242 10.4 13.0 0.00 0.00 0.00 59 1012.6
20260503203020 69 247 7.8 13.0 0.00 0.00 0.00 60 1012.9
20260503201518 68 250 8.7 13.0 0.00 0.00 0.00 62 1013.1
20260503200016 68 243 9.6 12.2 0.00 0.00 0.00 60 1013.2
20260503194525 69 244 7.8 10.4 0.00 0.00 0.00 57 1013.3
20260503193026 68 232 8.7 10.4 0.00 0.00 0.00 57 1013.3
20260503191530 68 229 7.0 9.6 0.00 0.00 0.00 57 1013.5
20260503190028 68 238 7.0 7.8 0.00 0.00 0.00 60 1013.6
20260503184524 68 229 4.3 7.8 0.00 0.00 0.00 57 1013.9
20260503183022 67 226 4.3 7.0 0.00 0.00 0.00 64 1014.1
20260503181518 66 253 3.5 7.0 0.00 0.00 0.00 67 1014.2
20260503180016 65 236 2.6 4.3 0.00 0.00 0.00 65 1014.4
20260503174526 63 243 0.9 2.6 0.00 0.00 0.00 69 1014.4